Tracking 25372 objects as of 24-Jan-2022
HD Live streaming from Space Station
objects crossing your sky now

SHIJIAN-15 (SJ-15)

Track SHIJIAN-15 (SJ-15) now!
10-day predictions
SHIJIAN-15 (SJ-15) is classified as:


NORAD ID: 39210
Int'l Code: 2013-037C
Perigee: 670.7 km
Apogee: 679.5 km
Inclination: 98.0 °
Period: 98.1 minutes
Semi major axis: 7046 km
RCS: Unknown
Launch date: July 19, 2013
Source: People's Republic of China (PRC)
Launch site: Taiyaun Space Center, China (TSC)

SHIJIAN 15 is a technology satellite, precise mission unknown at present.
aabbcc
Your satellite tracking list
Your tracking list is empty




NASA's NSSDC Master Catalog

Two Line Element Set (TLE):
1 39210U 13037C   22023.78131856  .00000148  00000-0  34302-4 0  9996
2 39210  98.0363  23.7709 0006262 196.6603 163.4397 14.67851827458561
Source of the keplerian elements: AFSPC